JTD7AJ EKCH-LGRP

Flight info

Callsign JTD7AJ
Flight time 3h 2m
Altitude 35000
Route SALLO M44 KOGIM DCT BINKA DCT DESEN DCT MAKAL DCT PARAK DCT OBLAK DCT NISVA DCT VANET DCT NIKTI DCT KERMA UL618 MES UN139 LURUS UL995 KOPAR/N0407F230 L995 CODIC
Aircraft B738/M-SDE2E3FGHIRWXY/LB1

Departure

Time 2026-04-26 10:42
Airport Copenhagen Kastrup Airport (EKCH)

Arrival

Time 2026-04-26 13:44
Airport Rhodes International Airport "Diagoras" (LGRP)
Time Latitude Longitude Altitude Speed Heading
2026-04-26 10:13 55.62909 12.63725 25 ft 0 kts 40°
2026-04-26 10:17 55.62909 12.63724 25 ft 0 kts 40°
2026-04-26 10:28 55.62908 12.63724 23 ft 0 kts 40°
2026-04-26 10:31 55.62906 12.63720 23 ft 3 kts 41°
2026-04-26 10:31 55.62887 12.63689 26 ft 4 kts 47°
2026-04-26 10:31 55.62871 12.63652 23 ft 4 kts 63°
2026-04-26 10:32 55.62862 12.63608 23 ft 4 kts 84°
2026-04-26 10:32 55.62861 12.63598 25 ft 1 kts 86°
2026-04-26 10:34 55.62861 12.63597 25 ft 0 kts 86°
2026-04-26 10:35 55.62862 12.63626 23 ft 6 kts 86°
2026-04-26 10:35 55.62860 12.63721 25 ft 9 kts 101°
2026-04-26 10:35 55.62841 12.63865 23 ft 15 kts 103°
2026-04-26 10:35 55.62764 12.63938 23 ft 16 kts 205°
2026-04-26 10:36 55.62669 12.63848 23 ft 13 kts 174°
2026-04-26 10:36 55.62608 12.63975 24 ft 15 kts 123°
2026-04-26 10:36 55.62565 12.64093 24 ft 19 kts 123°
2026-04-26 10:36 55.62489 12.64293 23 ft 20 kts 130°
2026-04-26 10:37 55.62405 12.64489 23 ft 20 kts 123°
2026-04-26 10:37 55.62332 12.64688 24 ft 19 kts 123°
2026-04-26 10:37 55.62257 12.64792 23 ft 13 kts 174°
2026-04-26 10:37 55.62204 12.64762 23 ft 4 kts 210°
2026-04-26 10:38 55.62182 12.64738 25 ft 8 kts 211°
2026-04-26 10:38 55.62112 12.64659 27 ft 17 kts 213°
2026-04-26 10:38 55.61994 12.64525 23 ft 23 kts 205°
2026-04-26 10:38 55.61826 12.64533 23 ft 27 kts 168°
2026-04-26 10:39 55.61670 12.64558 23 ft 0 kts 173°
2026-04-26 10:39 55.61639 12.64523 24 ft 12 kts 214°
2026-04-26 10:39 55.61528 12.64395 23 ft 23 kts 212°
2026-04-26 10:39 55.61391 12.64235 26 ft 25 kts 213°
2026-04-26 10:40 55.61247 12.64073 23 ft 24 kts 212°
2026-04-26 10:40 55.61113 12.63917 24 ft 23 kts 213°
2026-04-26 10:40 55.60984 12.63769 24 ft 22 kts 213°
2026-04-26 10:40 55.60854 12.63618 23 ft 23 kts 213°
2026-04-26 10:41 55.60712 12.63458 24 ft 25 kts 212°
2026-04-26 10:41 55.60570 12.63260 23 ft 27 kts 220°
2026-04-26 10:41 55.60439 12.63115 23 ft 22 kts 170°
2026-04-26 10:41 55.60339 12.63315 26 ft 22 kts 95°
2026-04-26 10:42 55.60498 12.63592 23 ft 58 kts 41°
2026-04-26 10:42 55.60962 12.64311 26 ft 117 kts 41°
2026-04-26 10:42 55.61700 12.65448 87 ft 158 kts 40°
2026-04-26 10:42 55.62523 12.66756 713 ft 159 kts 37°
2026-04-26 10:43 55.63387 12.68091 1238 ft 174 kts 36°
2026-04-26 10:43 55.64301 12.69495 1933 ft 178 kts 37°
2026-04-26 10:43 55.65316 12.71029 2256 ft 204 kts 37°
2026-04-26 10:43 55.66464 12.72743 2500 ft 225 kts 37°
2026-04-26 10:44 55.67630 12.74648 3072 ft 235 kts 50°
2026-04-26 10:44 55.68178 12.77502 3478 ft 261 kts 89°
2026-04-26 10:44 55.67671 12.80615 4288 ft 268 kts 120°
2026-04-26 10:44 55.66414 12.83077 5123 ft 274 kts 143°
2026-04-26 10:45 55.64739 12.84746 5907 ft 279 kts 155°
2026-04-26 10:45 55.62964 12.86086 6666 ft 284 kts 158°
2026-04-26 10:45 55.61111 12.87397 7332 ft 291 kts 158°
2026-04-26 10:45 55.59211 12.88740 8011 ft 297 kts 158°
2026-04-26 10:46 55.57277 12.90126 8691 ft 303 kts 158°
2026-04-26 10:46 55.55304 12.91561 9382 ft 310 kts 158°
2026-04-26 10:46 55.53293 12.93039 10053 ft 317 kts 157°
2026-04-26 10:46 55.51233 12.94565 10614 ft 327 kts 157°
2026-04-26 10:47 55.49059 12.96183 10781 ft 351 kts 157°
2026-04-26 10:47 55.46743 12.97911 10966 ft 373 kts 157°
2026-04-26 10:47 55.44329 12.99715 11251 ft 389 kts 157°
2026-04-26 10:47 55.41811 13.01598 11774 ft 397 kts 157°
2026-04-26 10:48 55.39249 13.03514 12409 ft 403 kts 157°
2026-04-26 10:48 55.36654 13.05452 13026 ft 408 kts 157°
2026-04-26 10:48 55.34019 13.07417 13605 ft 415 kts 157°
2026-04-26 10:48 55.31341 13.09412 14205 ft 421 kts 157°
2026-04-26 10:49 55.28633 13.11426 14763 ft 425 kts 158°
2026-04-26 10:49 55.25894 13.13459 15326 ft 429 kts 158°
2026-04-26 10:49 55.23130 13.15508 15902 ft 434 kts 158°
2026-04-26 10:49 55.20375 13.17548 16447 ft 438 kts 158°
2026-04-26 10:50 55.17550 13.19636 17002 ft 443 kts 158°
2026-04-26 10:50 55.14698 13.21740 17557 ft 447 kts 158°
2026-04-26 10:50 55.11817 13.23863 18100 ft 452 kts 158°
2026-04-26 10:50 55.08911 13.26002 18662 ft 456 kts 158°
2026-04-26 10:51 55.05961 13.28169 19023 ft 463 kts 158°
2026-04-26 10:51 54.99990 13.32546 20061 ft 467 kts 158°
2026-04-26 10:51 54.97025 13.34715 20536 ft 470 kts 158°
2026-04-26 10:52 54.93999 13.36922 20997 ft 474 kts 159°
2026-04-26 10:52 54.90891 13.38858 21435 ft 475 kts 167°
2026-04-26 10:52 54.87649 13.39946 21902 ft 475 kts 175°
2026-04-26 10:52 54.84371 13.40741 22380 ft 477 kts 176°
2026-04-26 10:53 54.81071 13.41530 22828 ft 480 kts 176°
2026-04-26 10:53 54.77754 13.42365 23225 ft 483 kts 175°
2026-04-26 10:53 54.74425 13.43248 23750 ft 484 kts 175°
2026-04-26 10:54 54.67785 13.45043 24517 ft 489 kts 175°
2026-04-26 10:54 54.64416 13.45941 24884 ft 491 kts 175°
2026-04-26 10:54 54.61036 13.46837 25250 ft 493 kts 175°
2026-04-26 10:54 54.57644 13.47735 25621 ft 494 kts 175°
2026-04-26 10:55 54.54235 13.48637 25983 ft 496 kts 176°
2026-04-26 10:55 54.50819 13.49540 26299 ft 498 kts 175°
2026-04-26 10:55 54.47404 13.50426 26788 ft 497 kts 176°
2026-04-26 10:55 54.43960 13.51298 26976 ft 502 kts 176°
2026-04-26 10:56 54.40535 13.52159 27201 ft 506 kts 176°
2026-04-26 10:56 54.37052 13.53055 27567 ft 508 kts 175°
2026-04-26 10:56 54.33602 13.54535 27919 ft 515 kts 164°
2026-04-26 10:56 54.30283 13.56923 28247 ft 520 kts 155°
2026-04-26 10:57 54.27160 13.60098 28519 ft 525 kts 145°
2026-04-26 10:57 54.24259 13.63923 28799 ft 528 kts 142°
2026-04-26 10:57 54.21391 13.67843 29088 ft 528 kts 142°
2026-04-26 10:57 54.18524 13.71767 29505 ft 527 kts 143°
2026-04-26 10:58 54.15654 13.75655 29852 ft 527 kts 143°
2026-04-26 10:58 54.12766 13.79518 30221 ft 527 kts 143°
2026-04-26 10:58 54.09915 13.83292 30566 ft 526 kts 144°
2026-04-26 10:58 54.07022 13.87097 30888 ft 526 kts 144°
2026-04-26 10:59 54.01167 13.94760 31168 ft 533 kts 144°
2026-04-26 10:59 53.98232 13.98596 31533 ft 531 kts 144°
2026-04-26 10:59 53.95316 14.02404 31952 ft 527 kts 144°
2026-04-26 11:00 53.92412 14.06191 32264 ft 526 kts 144°
2026-04-26 11:00 53.89521 14.09948 32693 ft 521 kts 144°
2026-04-26 11:00 53.86688 14.13632 33058 ft 519 kts 144°
2026-04-26 11:00 53.83818 14.17358 33294 ft 520 kts 144°
2026-04-26 11:01 53.80944 14.21084 33510 ft 521 kts 144°
2026-04-26 11:01 53.78062 14.24809 33800 ft 521 kts 144°
2026-04-26 11:01 53.75153 14.28488 33914 ft 524 kts 148°
2026-04-26 11:01 53.72090 14.31818 34089 ft 524 kts 151°
2026-04-26 11:02 53.68971 14.34973 34359 ft 522 kts 152°
2026-04-26 11:02 53.65837 14.38055 34641 ft 520 kts 153°
2026-04-26 11:02 53.62762 14.41062 34923 ft 517 kts 152°
2026-04-26 11:02 53.59674 14.44099 35294 ft 512 kts 152°
2026-04-26 11:03 53.53504 14.50235 35302 ft 516 kts 152°
2026-04-26 11:03 53.47361 14.56396 35282 ft 511 kts 152°
2026-04-26 11:04 53.41279 14.62494 35312 ft 510 kts 151°
2026-04-26 11:04 53.35217 14.68542 35315 ft 511 kts 152°
2026-04-26 11:05 53.29094 14.74627 35289 ft 512 kts 152°
2026-04-26 11:05 53.22963 14.80699 35297 ft 513 kts 152°
2026-04-26 11:06 53.16819 14.86763 35295 ft 513 kts 152°
2026-04-26 11:06 53.10708 14.92775 35297 ft 514 kts 152°
2026-04-26 11:07 53.04545 14.98817 35252 ft 514 kts 152°
2026-04-26 11:07 52.98394 15.04828 35278 ft 512 kts 152°
2026-04-26 11:08 52.92260 15.10803 35280 ft 510 kts 152°
2026-04-26 11:08 52.86187 15.16698 35279 ft 508 kts 152°
2026-04-26 11:09 52.80095 15.22593 35285 ft 507 kts 152°
2026-04-26 11:09 52.74014 15.28456 35241 ft 505 kts 153°
2026-04-26 11:10 52.67960 15.34276 35269 ft 503 kts 153°
2026-04-26 11:10 52.61923 15.40060 35275 ft 501 kts 153°
2026-04-26 11:11 52.55939 15.45774 35279 ft 500 kts 153°
2026-04-26 11:11 52.49921 15.51503 35276 ft 500 kts 153°
2026-04-26 11:12 52.43905 15.57211 35275 ft 499 kts 153°
2026-04-26 11:12 52.37880 15.62910 35277 ft 501 kts 153°
2026-04-26 11:13 52.31863 15.68583 35274 ft 503 kts 153°
2026-04-26 11:13 52.25776 15.74303 35273 ft 506 kts 153°
2026-04-26 11:14 52.19661 15.80033 35274 ft 508 kts 153°
2026-04-26 11:14 52.13527 15.85763 35263 ft 509 kts 153°
2026-04-26 11:15 52.07384 15.91482 35273 ft 509 kts 153°
2026-04-26 11:15 52.01275 15.97151 35268 ft 509 kts 153°
2026-04-26 11:16 51.95122 16.02843 35269 ft 509 kts 153°
2026-04-26 11:16 51.88970 16.08516 35238 ft 508 kts 153°
2026-04-26 11:17 51.82838 16.14152 35250 ft 506 kts 153°
2026-04-26 11:17 51.76769 16.19714 35257 ft 504 kts 153°
2026-04-26 11:18 51.70667 16.25287 35266 ft 504 kts 153°
2026-04-26 11:18 51.64565 16.30843 35269 ft 504 kts 153°
2026-04-26 11:19 51.58462 16.36382 35260 ft 503 kts 153°
2026-04-26 11:19 51.52411 16.41858 35255 ft 503 kts 153°
2026-04-26 11:20 51.47346 16.46428 35256 ft 502 kts 153°
2026-04-26 11:20 51.40222 16.52836 35275 ft 503 kts 153°
2026-04-26 11:21 51.34107 16.58317 35229 ft 504 kts 153°
2026-04-26 11:21 51.28024 16.63755 35246 ft 505 kts 153°
2026-04-26 11:22 51.21889 16.69221 35249 ft 505 kts 153°
2026-04-26 11:22 51.15750 16.74675 35250 ft 505 kts 153°
2026-04-26 11:23 51.09609 16.80114 35246 ft 505 kts 153°
2026-04-26 11:23 51.03498 16.85509 35253 ft 505 kts 153°
2026-04-26 11:24 50.97348 16.90923 35257 ft 505 kts 153°
2026-04-26 11:24 50.91199 16.96318 35258 ft 505 kts 153°
2026-04-26 11:25 50.85050 17.01698 35256 ft 505 kts 153°
2026-04-26 11:25 50.78939 17.07028 35247 ft 505 kts 153°
2026-04-26 11:26 50.72797 17.12369 35242 ft 504 kts 153°
2026-04-26 11:26 50.66656 17.17693 35241 ft 503 kts 154°
2026-04-26 11:27 50.60517 17.23000 35243 ft 503 kts 154°
2026-04-26 11:27 50.54380 17.28289 35241 ft 503 kts 154°
2026-04-26 11:28 50.48289 17.33523 35232 ft 501 kts 154°
2026-04-26 11:28 50.42179 17.38758 35250 ft 500 kts 154°
2026-04-26 11:29 50.36070 17.43977 35233 ft 500 kts 154°
2026-04-26 11:29 50.29966 17.49178 35235 ft 499 kts 154°
2026-04-26 11:30 50.24843 17.53309 35224 ft 497 kts 159°
2026-04-26 11:30 50.17435 17.58088 35219 ft 495 kts 161°
2026-04-26 11:31 50.11037 17.62059 35231 ft 495 kts 161°
2026-04-26 11:31 50.04654 17.66101 35236 ft 496 kts 161°
2026-04-26 11:32 49.98265 17.70192 35232 ft 497 kts 161°
2026-04-26 11:32 49.91913 17.74261 35221 ft 497 kts 161°
2026-04-26 11:33 49.85510 17.78347 35224 ft 498 kts 161°
2026-04-26 11:33 49.79100 17.82421 35235 ft 498 kts 161°
2026-04-26 11:34 49.72690 17.86483 35234 ft 498 kts 161°
2026-04-26 11:34 49.66326 17.90505 35233 ft 497 kts 161°
2026-04-26 11:35 49.59924 17.94540 35237 ft 497 kts 161°
2026-04-26 11:35 49.53525 17.98560 35234 ft 496 kts 161°
2026-04-26 11:36 49.47129 18.02568 35222 ft 496 kts 161°
2026-04-26 11:36 49.40750 18.06555 35217 ft 494 kts 161°
2026-04-26 11:37 49.34438 18.10489 35216 ft 493 kts 161°
2026-04-26 11:37 49.28093 18.14433 35226 ft 491 kts 161°
2026-04-26 11:38 49.21764 18.18403 35213 ft 492 kts 160°
2026-04-26 11:38 49.15497 18.22572 35207 ft 491 kts 159°
2026-04-26 11:39 49.09261 18.26768 35210 ft 489 kts 159°
2026-04-26 11:39 49.03071 18.30895 35200 ft 488 kts 159°
2026-04-26 11:40 48.96841 18.35014 35196 ft 488 kts 160°
2026-04-26 11:40 48.90606 18.39118 35183 ft 488 kts 160°
2026-04-26 11:42 48.65671 18.55425 35175 ft 489 kts 159°
2026-04-26 11:43 48.59421 18.59485 35180 ft 489 kts 159°
2026-04-26 11:43 48.53164 18.63540 35174 ft 489 kts 159°
2026-04-26 11:44 48.46950 18.67555 35167 ft 489 kts 160°
2026-04-26 11:44 48.40697 18.71585 35157 ft 488 kts 159°
2026-04-26 11:45 48.34446 18.75602 35160 ft 488 kts 159°
2026-04-26 11:45 48.28201 18.79606 35169 ft 488 kts 160°
2026-04-26 11:46 48.21991 18.83576 35147 ft 489 kts 160°
2026-04-26 11:46 48.15736 18.87564 35145 ft 489 kts 159°
2026-04-26 11:47 48.09480 18.91542 35150 ft 488 kts 159°
2026-04-26 11:47 48.03220 18.95513 35147 ft 489 kts 159°
2026-04-26 11:48 47.96962 18.99471 35147 ft 489 kts 160°
2026-04-26 11:48 47.90742 19.03395 35138 ft 488 kts 159°
2026-04-26 11:49 47.84489 19.07330 35143 ft 488 kts 159°
2026-04-26 11:49 47.78234 19.11255 35133 ft 488 kts 159°
2026-04-26 11:50 47.71970 19.15174 35148 ft 488 kts 159°
2026-04-26 11:50 47.65742 19.19063 35139 ft 489 kts 159°
2026-04-26 11:51 47.59462 19.22975 35146 ft 490 kts 159°
2026-04-26 11:51 47.53167 19.26884 35157 ft 491 kts 159°
2026-04-26 11:52 47.47926 19.30132 35165 ft 492 kts 159°
2026-04-26 11:52 47.40545 19.34693 35148 ft 492 kts 159°
2026-04-26 11:53 47.34276 19.38556 35146 ft 491 kts 159°
2026-04-26 11:54 47.24832 19.44357 35132 ft 489 kts 159°
2026-04-26 11:54 47.18554 19.48201 35126 ft 488 kts 159°
2026-04-26 11:55 47.12333 19.52000 35106 ft 487 kts 159°
2026-04-26 11:55 47.06083 19.55807 35111 ft 486 kts 159°
2026-04-26 11:56 46.99845 19.59597 35108 ft 485 kts 159°
2026-04-26 11:56 46.93612 19.63375 35093 ft 485 kts 159°
2026-04-26 11:57 46.87386 19.67139 35098 ft 484 kts 159°
2026-04-26 11:57 46.81209 19.70864 35102 ft 483 kts 159°
2026-04-26 11:58 46.74991 19.74604 35104 ft 483 kts 159°
2026-04-26 11:58 46.68775 19.78334 35089 ft 483 kts 160°
2026-04-26 11:59 46.62573 19.82046 35091 ft 482 kts 160°
2026-04-26 11:59 46.56425 19.85717 35094 ft 480 kts 160°
2026-04-26 12:00 46.50246 19.89397 35092 ft 479 kts 160°
2026-04-26 12:00 46.44078 19.93061 35089 ft 478 kts 160°
2026-04-26 12:01 46.37928 19.96706 35087 ft 477 kts 160°
2026-04-26 12:01 46.31834 20.00310 35092 ft 476 kts 160°
2026-04-26 12:02 46.25710 20.03923 35094 ft 475 kts 160°
2026-04-26 12:02 46.19579 20.07531 35340 ft 475 kts 159°
2026-04-26 12:02 46.16538 20.09356 35658 ft 472 kts 156°
2026-04-26 12:03 46.13651 20.11598 35933 ft 471 kts 150°
2026-04-26 12:03 46.10867 20.14086 36189 ft 470 kts 148°
2026-04-26 12:03 46.08101 20.16620 36272 ft 473 kts 148°
2026-04-26 12:04 46.02557 20.21698 36514 ft 476 kts 149°
2026-04-26 12:04 45.99755 20.24232 36752 ft 475 kts 149°
2026-04-26 12:04 45.96955 20.26743 36925 ft 474 kts 149°
2026-04-26 12:04 45.94172 20.29225 37054 ft 469 kts 149°
2026-04-26 12:05 45.91395 20.31690 37080 ft 469 kts 149°
2026-04-26 12:05 45.85809 20.36631 37098 ft 475 kts 149°
2026-04-26 12:06 45.80198 20.41583 37090 ft 477 kts 149°
2026-04-26 12:06 45.74537 20.46572 37092 ft 478 kts 149°
2026-04-26 12:07 45.68873 20.51552 37075 ft 477 kts 150°
2026-04-26 12:07 45.63276 20.56463 37068 ft 467 kts 149°
2026-04-26 12:08 45.57802 20.61193 37071 ft 461 kts 150°
2026-04-26 12:08 45.52290 20.66001 37090 ft 468 kts 149°
2026-04-26 12:09 45.46706 20.70904 37077 ft 474 kts 149°
2026-04-26 12:09 45.41059 20.75831 37078 ft 478 kts 149°
2026-04-26 12:10 45.35450 20.80700 37073 ft 473 kts 150°
2026-04-26 12:10 45.29852 20.85541 37065 ft 469 kts 150°
2026-04-26 12:11 45.24298 20.90333 37072 ft 467 kts 150°
2026-04-26 12:11 45.18712 20.95139 37083 ft 472 kts 150°
2026-04-26 12:12 45.13123 20.99939 37072 ft 474 kts 149°
2026-04-26 12:12 45.07469 21.04783 37089 ft 476 kts 150°
2026-04-26 12:13 45.01793 21.09636 37073 ft 476 kts 149°
2026-04-26 12:13 44.96178 21.14426 37038 ft 467 kts 149°
2026-04-26 12:14 44.90654 21.19127 37048 ft 467 kts 150°
2026-04-26 12:14 44.85057 21.23877 37056 ft 473 kts 150°
2026-04-26 12:15 44.79389 21.28676 37064 ft 478 kts 150°
2026-04-26 12:15 44.73685 21.33498 37057 ft 478 kts 150°
2026-04-26 12:16 44.68039 21.38258 37057 ft 475 kts 150°
2026-04-26 12:16 44.62379 21.43019 37051 ft 473 kts 150°
2026-04-26 12:17 44.56736 21.47755 37050 ft 472 kts 150°
2026-04-26 12:17 44.51107 21.52468 37048 ft 470 kts 150°
2026-04-26 12:18 44.45485 21.57165 37040 ft 471 kts 150°
2026-04-26 12:18 44.39894 21.61824 37049 ft 472 kts 150°
2026-04-26 12:19 44.34248 21.66519 37055 ft 473 kts 150°
2026-04-26 12:19 44.28589 21.71215 37046 ft 474 kts 150°
2026-04-26 12:20 44.22906 21.75920 37034 ft 476 kts 150°
2026-04-26 12:20 44.17242 21.80598 37054 ft 477 kts 150°
2026-04-26 12:21 44.11517 21.85317 37030 ft 479 kts 150°
2026-04-26 12:21 44.05779 21.90035 37029 ft 480 kts 151°
2026-04-26 12:22 44.00029 21.94752 37051 ft 480 kts 151°
2026-04-26 12:22 43.94312 21.99431 37033 ft 480 kts 150°
2026-04-26 12:23 43.88571 22.04121 37033 ft 478 kts 150°
2026-04-26 12:23 43.82847 22.08785 37025 ft 476 kts 150°
2026-04-26 12:24 43.77146 22.13421 37017 ft 474 kts 151°
2026-04-26 12:24 43.71505 22.17997 37023 ft 472 kts 151°
2026-04-26 12:25 43.63024 22.24859 37033 ft 470 kts 151°
2026-04-26 12:25 43.57380 22.29412 37046 ft 470 kts 151°
2026-04-26 12:26 43.51729 22.33963 37047 ft 471 kts 151°
2026-04-26 12:26 43.46119 22.38521 37041 ft 472 kts 150°
2026-04-26 12:27 43.40512 22.43302 37039 ft 474 kts 149°
2026-04-26 12:27 43.34927 22.48092 37052 ft 475 kts 149°
2026-04-26 12:28 43.29303 22.52874 37035 ft 476 kts 150°
2026-04-26 12:28 43.23692 22.57619 37051 ft 478 kts 150°
2026-04-26 12:29 43.18020 22.62403 37045 ft 479 kts 150°
2026-04-26 12:30 43.09708 22.70067 37049 ft 481 kts 146°
2026-04-26 12:30 43.04233 22.75337 37032 ft 481 kts 146°
2026-04-26 12:31 42.96020 22.83117 37037 ft 481 kts 147°
2026-04-26 12:31 42.90512 22.88279 37031 ft 480 kts 147°
2026-04-26 12:32 42.85006 22.93424 37033 ft 479 kts 147°
2026-04-26 12:33 42.76802 23.01074 37022 ft 478 kts 147°
2026-04-26 12:33 42.71317 23.06176 37025 ft 477 kts 147°
2026-04-26 12:34 42.65831 23.11268 37031 ft 477 kts 147°
2026-04-26 12:34 42.60342 23.16351 37023 ft 478 kts 148°
2026-04-26 12:35 42.54845 23.21431 37017 ft 479 kts 148°
2026-04-26 12:35 42.49330 23.26517 37022 ft 480 kts 148°
2026-04-26 12:36 42.43841 23.31568 37024 ft 481 kts 148°
2026-04-26 12:36 42.38302 23.36654 37023 ft 482 kts 148°
2026-04-26 12:37 42.32753 23.41737 37027 ft 482 kts 148°
2026-04-26 12:37 42.27195 23.46818 37029 ft 483 kts 148°
2026-04-26 12:38 42.21626 23.51898 37028 ft 484 kts 148°
2026-04-26 12:38 42.16081 23.56946 37024 ft 484 kts 148°
2026-04-26 12:39 42.10493 23.62021 36992 ft 484 kts 148°
2026-04-26 12:39 42.04915 23.67077 37008 ft 483 kts 148°
2026-04-26 12:40 41.99338 23.72121 37014 ft 483 kts 148°
2026-04-26 12:40 41.93770 23.77146 36999 ft 482 kts 149°
2026-04-26 12:41 41.88245 23.82121 36993 ft 481 kts 149°
2026-04-26 12:41 41.82691 23.87112 36984 ft 480 kts 149°
2026-04-26 12:42 41.77143 23.92088 36984 ft 479 kts 149°
2026-04-26 12:42 41.71599 23.97049 36984 ft 480 kts 149°
2026-04-26 12:43 41.66047 24.02007 36981 ft 480 kts 149°
2026-04-26 12:43 41.60528 24.06926 36972 ft 480 kts 149°
2026-04-26 12:44 41.54961 24.11846 36975 ft 480 kts 152°
2026-04-26 12:44 41.48981 24.15669 36973 ft 476 kts 161°
2026-04-26 12:45 41.42862 24.19054 36974 ft 477 kts 161°
2026-04-26 12:45 41.36778 24.22443 36961 ft 477 kts 160°
2026-04-26 12:46 41.30664 24.25910 36975 ft 478 kts 160°
2026-04-26 12:46 41.24556 24.29396 36970 ft 478 kts 160°
2026-04-26 12:47 41.18493 24.32853 36983 ft 477 kts 160°
2026-04-26 12:47 41.12392 24.36323 36980 ft 477 kts 160°
2026-04-26 12:48 41.06286 24.39785 36983 ft 478 kts 159°
2026-04-26 12:48 41.00173 24.43245 36989 ft 478 kts 159°
2026-04-26 12:49 40.94059 24.46698 36980 ft 478 kts 159°
2026-04-26 12:49 40.87990 24.50119 36993 ft 477 kts 159°
2026-04-26 12:50 40.81889 24.53552 36996 ft 476 kts 159°
2026-04-26 12:50 40.75792 24.56975 36998 ft 476 kts 159°
2026-04-26 12:51 40.69702 24.60387 36993 ft 475 kts 159°
2026-04-26 12:51 40.63658 24.63767 37000 ft 475 kts 159°
2026-04-26 12:52 40.57574 24.67162 36998 ft 475 kts 159°
2026-04-26 12:52 40.51493 24.70549 37000 ft 475 kts 159°
2026-04-26 12:53 40.45413 24.73929 36992 ft 474 kts 159°
2026-04-26 12:53 40.39373 24.77280 37011 ft 474 kts 159°
2026-04-26 12:54 40.33293 24.80647 37014 ft 474 kts 159°
2026-04-26 12:54 40.27207 24.84010 37008 ft 475 kts 159°
2026-04-26 12:55 40.21121 24.87366 37016 ft 475 kts 159°
2026-04-26 12:55 40.15069 24.90698 37011 ft 475 kts 159°
2026-04-26 12:56 40.08968 24.94050 37014 ft 476 kts 159°
2026-04-26 12:56 40.02861 24.97398 37003 ft 476 kts 159°
2026-04-26 12:57 39.96749 25.00743 37008 ft 477 kts 159°
2026-04-26 12:57 39.90673 25.04062 36994 ft 477 kts 159°
2026-04-26 12:58 39.81484 25.09069 36991 ft 477 kts 159°
2026-04-26 12:58 39.75359 25.12398 37004 ft 477 kts 158°
2026-04-26 12:59 39.69230 25.15723 37011 ft 477 kts 158°
2026-04-26 12:59 39.63149 25.19016 37016 ft 477 kts 158°
2026-04-26 13:00 39.57024 25.22326 37017 ft 477 kts 158°
2026-04-26 13:00 39.50902 25.25628 37021 ft 476 kts 158°
2026-04-26 13:01 39.44785 25.28921 37023 ft 476 kts 158°
2026-04-26 13:01 39.38708 25.32187 37018 ft 476 kts 158°
2026-04-26 13:02 39.32592 25.35467 37022 ft 476 kts 158°
2026-04-26 13:02 39.26472 25.38743 37018 ft 476 kts 158°
2026-04-26 13:03 39.20356 25.42011 37016 ft 476 kts 158°
2026-04-26 13:03 39.14280 25.45251 37018 ft 476 kts 158°
2026-04-26 13:04 39.08163 25.48507 37012 ft 476 kts 157°
2026-04-26 13:04 39.02046 25.51757 37012 ft 476 kts 157°
2026-04-26 13:05 38.95925 25.55003 37013 ft 476 kts 157°
2026-04-26 13:05 38.89847 25.58220 37011 ft 476 kts 157°
2026-04-26 13:06 38.83723 25.61455 37013 ft 476 kts 157°
2026-04-26 13:06 38.77598 25.64686 37023 ft 476 kts 157°
2026-04-26 13:07 38.71465 25.67914 37004 ft 477 kts 157°
2026-04-26 13:07 38.65371 25.71115 37010 ft 477 kts 157°
2026-04-26 13:08 38.59232 25.74335 37006 ft 477 kts 157°
2026-04-26 13:08 38.53084 25.77553 37012 ft 477 kts 157°
2026-04-26 13:09 38.46935 25.80767 36991 ft 478 kts 157°
2026-04-26 13:09 38.40823 25.83956 36986 ft 478 kts 157°
2026-04-26 13:10 38.34624 25.87038 36981 ft 479 kts 161°
2026-04-26 13:10 38.28234 25.89441 36989 ft 479 kts 163°
2026-04-26 13:11 38.21869 25.91975 36971 ft 479 kts 160°
2026-04-26 13:11 38.15646 25.94846 36986 ft 479 kts 159°
2026-04-26 13:12 38.09384 25.97769 36989 ft 480 kts 159°
2026-04-26 13:12 38.03105 26.00638 36990 ft 480 kts 159°
2026-04-26 13:13 37.96815 26.03482 36990 ft 480 kts 159°
2026-04-26 13:13 37.90570 26.06299 36990 ft 480 kts 159°
2026-04-26 13:14 37.84280 26.09133 36987 ft 480 kts 159°
2026-04-26 13:14 37.77992 26.11964 36992 ft 480 kts 159°
2026-04-26 13:15 37.71744 26.14774 36990 ft 480 kts 159°
2026-04-26 13:15 37.66482 26.17147 36990 ft 480 kts 159°
2026-04-26 13:16 37.59161 26.20448 36638 ft 486 kts 159°
2026-04-26 13:16 37.55974 26.21883 36126 ft 484 kts 159°
2026-04-26 13:16 37.52806 26.23306 35542 ft 484 kts 159°
2026-04-26 13:17 37.46497 26.26138 34317 ft 486 kts 158°
2026-04-26 13:17 37.43304 26.27569 33569 ft 488 kts 158°
2026-04-26 13:18 37.36899 26.30437 32160 ft 489 kts 157°
2026-04-26 13:18 37.33687 26.31873 31458 ft 490 kts 157°
2026-04-26 13:18 37.28374 26.34243 30602 ft 484 kts 157°
2026-04-26 13:19 37.25216 26.35652 30116 ft 480 kts 157°
2026-04-26 13:19 37.21072 26.37498 29373 ft 475 kts 157°
2026-04-26 13:19 37.17980 26.38871 28998 ft 467 kts 157°
2026-04-26 13:19 37.14949 26.40210 28670 ft 459 kts 157°
2026-04-26 13:20 37.11957 26.41532 28200 ft 454 kts 157°
2026-04-26 13:20 37.09986 26.42403 27880 ft 451 kts 157°
2026-04-26 13:20 37.07036 26.43706 27375 ft 448 kts 157°
2026-04-26 13:20 37.04112 26.44997 26907 ft 444 kts 157°
2026-04-26 13:21 37.01207 26.46280 26436 ft 441 kts 157°
2026-04-26 13:21 36.98323 26.47552 25965 ft 438 kts 157°
2026-04-26 13:21 36.94535 26.49220 25351 ft 434 kts 158°
2026-04-26 13:21 36.91732 26.50566 24883 ft 428 kts 149°
2026-04-26 13:22 36.90091 26.51876 24567 ft 420 kts 136°
2026-04-26 13:22 36.88114 26.54480 24152 ft 408 kts 121°
2026-04-26 13:22 36.86762 26.57533 23740 ft 398 kts 108°
2026-04-26 13:22 36.85730 26.60716 23232 ft 395 kts 107°
2026-04-26 13:23 36.84700 26.63886 22725 ft 393 kts 108°
2026-04-26 13:23 36.83304 26.68023 22119 ft 388 kts 109°
2026-04-26 13:23 36.82589 26.70108 21823 ft 386 kts 109°
2026-04-26 13:23 36.81195 26.74156 21247 ft 381 kts 109°
2026-04-26 13:24 36.80489 26.76207 20935 ft 380 kts 109°
2026-04-26 13:24 36.79465 26.79181 20505 ft 377 kts 110°
2026-04-26 13:24 36.78432 26.82179 20070 ft 375 kts 110°
2026-04-26 13:24 36.77406 26.85157 19633 ft 373 kts 110°
2026-04-26 13:25 36.76384 26.88120 19213 ft 371 kts 110°
2026-04-26 13:25 36.75367 26.91067 18782 ft 369 kts 110°
2026-04-26 13:25 36.74354 26.94001 18351 ft 368 kts 110°
2026-04-26 13:25 36.73343 26.96925 17881 ft 366 kts 110°
2026-04-26 13:26 36.72337 26.99834 17539 ft 363 kts 110°
2026-04-26 13:26 36.71355 27.02667 17284 ft 361 kts 110°
2026-04-26 13:26 36.70353 27.05558 16998 ft 364 kts 111°
2026-04-26 13:26 36.69352 27.08445 16616 ft 361 kts 111°
2026-04-26 13:27 36.68359 27.11301 16190 ft 358 kts 111°
2026-04-26 13:27 36.67372 27.14135 15765 ft 355 kts 111°
2026-04-26 13:27 36.66390 27.16947 15355 ft 353 kts 111°
2026-04-26 13:27 36.65412 27.19743 14961 ft 351 kts 111°
2026-04-26 13:28 36.64441 27.22518 14544 ft 349 kts 111°
2026-04-26 13:28 36.63475 27.25274 14127 ft 346 kts 111°
2026-04-26 13:28 36.62527 27.27980 13721 ft 345 kts 111°
2026-04-26 13:28 36.61572 27.30705 13267 ft 343 kts 111°
2026-04-26 13:29 36.60621 27.33412 12847 ft 340 kts 111°
2026-04-26 13:29 36.59676 27.36102 12424 ft 338 kts 111°
2026-04-26 13:29 36.58740 27.38765 12017 ft 335 kts 111°
2026-04-26 13:29 36.57809 27.41411 11618 ft 332 kts 112°
2026-04-26 13:30 36.56885 27.44034 11220 ft 330 kts 112°
2026-04-26 13:30 36.55967 27.46639 10835 ft 328 kts 112°
2026-04-26 13:30 36.55067 27.49193 10527 ft 323 kts 112°
2026-04-26 13:30 36.54178 27.51707 10404 ft 313 kts 112°
2026-04-26 13:31 36.53316 27.54147 10265 ft 304 kts 112°
2026-04-26 13:31 36.52477 27.56518 10134 ft 295 kts 112°
2026-04-26 13:31 36.51663 27.58819 10012 ft 287 kts 112°
2026-04-26 13:31 36.50871 27.61055 9843 ft 280 kts 112°
2026-04-26 13:32 36.50088 27.63268 9534 ft 279 kts 112°
2026-04-26 13:32 36.49309 27.65469 9250 ft 277 kts 112°
2026-04-26 13:32 36.48545 27.67621 8967 ft 275 kts 112°
2026-04-26 13:32 36.47774 27.69793 8680 ft 274 kts 112°
2026-04-26 13:33 36.47006 27.71951 8393 ft 272 kts 112°
2026-04-26 13:33 36.46358 27.74146 8102 ft 270 kts 101°
2026-04-26 13:33 36.46027 27.76428 7841 ft 268 kts 97°
2026-04-26 13:33 36.45758 27.78712 7553 ft 267 kts 97°
2026-04-26 13:34 36.45485 27.80990 7273 ft 266 kts 97°
2026-04-26 13:34 36.45199 27.83258 6996 ft 266 kts 97°
2026-04-26 13:34 36.44904 27.85492 6719 ft 266 kts 98°
2026-04-26 13:34 36.44698 27.87018 6532 ft 265 kts 98°
2026-04-26 13:35 36.44290 27.90006 6187 ft 264 kts 98°
2026-04-26 13:35 36.43988 27.92225 5952 ft 262 kts 96°
2026-04-26 13:35 36.44083 27.94466 5777 ft 262 kts 75°
2026-04-26 13:35 36.44608 27.96667 5583 ft 269 kts 71°
2026-04-26 13:36 36.45198 27.98902 5324 ft 275 kts 70°
2026-04-26 13:36 36.45802 28.01162 5092 ft 275 kts 70°
2026-04-26 13:36 36.46398 28.03373 4841 ft 272 kts 70°
2026-04-26 13:36 36.46996 28.05589 4589 ft 270 kts 70°
2026-04-26 13:37 36.47593 28.07788 4339 ft 267 kts 70°
2026-04-26 13:37 36.48186 28.09965 4090 ft 265 kts 70°
2026-04-26 13:37 36.48778 28.12127 3829 ft 263 kts 70°
2026-04-26 13:37 36.49367 28.14263 3583 ft 258 kts 70°
2026-04-26 13:38 36.49947 28.16336 3324 ft 250 kts 70°
2026-04-26 13:38 36.50517 28.18346 3062 ft 243 kts 70°
2026-04-26 13:38 36.51080 28.20297 2803 ft 237 kts 70°
2026-04-26 13:38 36.51613 28.22179 2534 ft 232 kts 70°
2026-04-26 13:39 36.52129 28.24052 2283 ft 227 kts 70°
2026-04-26 13:39 36.52639 28.25891 2075 ft 224 kts 70°
2026-04-26 13:39 36.53100 28.27728 2031 ft 224 kts 83°
2026-04-26 13:39 36.52789 28.29591 2014 ft 225 kts 126°
2026-04-26 13:40 36.51628 28.30856 2007 ft 225 kts 159°
2026-04-26 13:40 36.50121 28.31116 2026 ft 220 kts 192°
2026-04-26 13:40 36.48792 28.30287 2024 ft 215 kts 224°
2026-04-26 13:40 36.47868 28.28855 2007 ft 216 kts 236°
2026-04-26 13:41 36.47071 28.27281 2000 ft 215 kts 237°
2026-04-26 13:41 36.46282 28.25703 1997 ft 215 kts 237°
2026-04-26 13:41 36.45489 28.24130 1999 ft 215 kts 237°
2026-04-26 13:41 36.44690 28.22558 2005 ft 215 kts 237°
2026-04-26 13:42 36.44066 28.20844 1790 ft 222 kts 255°
2026-04-26 13:42 36.43649 28.19087 1515 ft 202 kts 247°
2026-04-26 13:42 36.43157 28.17544 1271 ft 183 kts 248°
2026-04-26 13:42 36.42736 28.16124 1044 ft 167 kts 249°
2026-04-26 13:43 36.42361 28.14847 879 ft 151 kts 250°
2026-04-26 13:43 36.42015 28.13664 704 ft 143 kts 250°
2026-04-26 13:43 36.41673 28.12497 510 ft 146 kts 250°
2026-04-26 13:43 36.41324 28.11313 276 ft 147 kts 251°
2026-04-26 13:44 36.40981 28.10130 39 ft 143 kts 251°
2026-04-26 13:44 36.40683 28.09110 30 ft 100 kts 250°
2026-04-26 13:44 36.40514 28.08524 26 ft 57 kts 250°
2026-04-26 13:44 36.40383 28.08110 27 ft 41 kts 239°
2026-04-26 13:45 36.40246 28.07919 27 ft 19 kts 222°
2026-04-26 13:45 36.40149 28.07866 27 ft 14 kts 137°
2026-04-26 13:45 36.40162 28.07964 27 ft 14 kts 69°
2026-04-26 13:45 36.40203 28.08103 27 ft 20 kts 71°
2026-04-26 13:46 36.40254 28.08279 27 ft 23 kts 68°
2026-04-26 13:46 36.40313 28.08471 27 ft 23 kts 71°
2026-04-26 13:46 36.40367 28.08656 27 ft 22 kts 70°
2026-04-26 13:46 36.40401 28.08823 27 ft 20 kts 89°
2026-04-26 13:47 36.40401 28.08986 27 ft 19 kts 77°
2026-04-26 13:47 36.40439 28.09138 27 ft 16 kts 70°
2026-04-26 13:47 36.40447 28.09204 27 ft 4 kts 135°
2026-04-26 13:47 36.40419 28.09219 27 ft 4 kts 159°
2026-04-26 13:48 36.40397 28.09229 27 ft 1 kts 160°
2026-04-26 13:48 36.40396 28.09230 27 ft 0 kts 160°